Weather History for Charleston, WV

Change the Weather History Date:

Thursday, March 22, 2012

  Actual Average Record
Temperature  
Mean Temperature 71 °F 48 °F  
Max Temperature 86 °F 59 °F 86 °F (1907)
Min Temperature 56 °F 37 °F 16 °F (1986)
Degree Days  
Heating Degree Days 0 17  
Month to date heating degree days 230 458  
Since 1 July heating degree days 3208 3912  
Cooling Degree Days 6 0  
Month to date cooling degree days 27 0  
Year to date cooling degree days 27 0  
Growing Degree Days 20 (Base 50)    
Moisture  
Dew Point 53 °F    
Average Humidity 61    
Maximum Humidity 93    
Minimum Humidity 29    
Precipitation  
Precipitation 0.00 in 0.13 in 1.31 in (1952)
Month to date precipitation 2.53 2.84  
Year to date precipitation 7.89 9.03  
Snow  
Snow 0.00 in - - ()
Month to date snowfall 3.4  
Since 1 September snowfall 11.7  
Snow Depth 0.00 in    
Sea Level Pressure  
Sea Level Pressure 30.12 in    
Wind  
Wind Speed 2 mph (WNW)    
Max Wind Speed 9 mph    
Max Gust Speed 14 mph    
Visibility 10 miles    
Events      
T = Trace of Precipitation, MM = Missing Value Source: NWS Daily Summary

Daily Weather History Graph

Daily Weather History Graph

Search for Another Location

Airport:

Trip Planner

Search our weather history database for the weather conditions in past years. The results will help you decide how hot, cold, wet, or windy it might be!

Date:

Astronomy

Mar. 22, 2012 Rise Set
Actual Time 7:26 AM EDT 7:40 PM EDT
Civil Twilight 6:59 AM EDT 8:07 PM EDT
Nautical Twilight 6:28 AM EDT 8:38 PM EDT
Astronomical Twilight 5:57 AM EDT 9:09 PM EDT
Moon 7:05 AM EDT (3/22) 8:03 PM EDT (3/22)
Length of Visible Light 13h 07m
Length of Day
12h 14m
New Moon, 0% of the Moon is Illuminated
Mar 22
New Moon
Mar 30
First Quarter
Apr 6
Full
Apr 13
Last Quarter
Apr 21
New

Hourly Weather History & Observations

Time (EDT) Temp. Heat Index Dew Point Humidity Pressure Visibility Wind Dir Wind Speed Gust Speed Precip Events Conditions
12:54 AM 66.9 °F - 54.0 °F 63% 30.13 in 10.0 mi Calm Calm - N/A   Clear
1:54 AM 64.0 °F - 54.0 °F 70% 30.13 in 10.0 mi NE 3.5 mph - N/A   Clear
2:54 AM 64.0 °F - 55.0 °F 73% 30.13 in 10.0 mi Calm Calm - N/A   Clear
3:54 AM 61.0 °F - 54.0 °F 78% 30.14 in 10.0 mi Calm Calm - N/A   Clear
4:54 AM 60.1 °F - 54.0 °F 80% 30.14 in 10.0 mi Calm Calm - N/A   Clear
5:54 AM 59.0 °F - 54.0 °F 83% 30.15 in 10.0 mi Calm Calm - N/A   Clear
6:54 AM 55.9 °F - 53.1 °F 90% 30.16 in 10.0 mi Calm Calm - N/A   Clear
7:54 AM 57.0 °F - 54.0 °F 89% 30.18 in 10.0 mi Calm Calm - N/A   Clear
8:54 AM 61.0 °F - 55.0 °F 81% 30.19 in 9.0 mi Calm Calm - N/A   Clear
9:54 AM 68.0 °F - 55.9 °F 65% 30.18 in 10.0 mi Calm Calm - N/A   Partly Cloudy
10:54 AM 75.0 °F - 55.9 °F 51% 30.18 in 10.0 mi Calm Calm - N/A   Clear
11:54 AM 77.0 °F - 54.0 °F 45% 30.18 in 10.0 mi WSW 4.6 mph - N/A   Scattered Clouds
12:54 PM 80.1 °F 79.9 °F 53.1 °F 39% 30.15 in 10.0 mi Calm Calm - N/A   Partly Cloudy
1:54 PM 82.0 °F 81.3 °F 54.0 °F 38% 30.13 in 10.0 mi WSW 6.9 mph - N/A   Partly Cloudy
2:54 PM 82.0 °F - 52.0 °F 35% 30.10 in 10.0 mi Calm Calm - N/A   Partly Cloudy
3:54 PM 84.0 °F - 52.0 °F 33% 30.07 in 10.0 mi Variable 4.6 mph - N/A   Scattered Clouds
4:54 PM 84.0 °F - 48.9 °F 29% 30.05 in 10.0 mi West 8.1 mph - N/A   Scattered Clouds
5:54 PM 84.9 °F - 48.9 °F 29% 30.04 in 10.0 mi NW 4.6 mph - N/A   Scattered Clouds
6:54 PM 82.9 °F - 48.9 °F 31% 30.05 in 10.0 mi WNW 3.5 mph - N/A   Partly Cloudy
7:54 PM 80.1 °F - 48.9 °F 34% 30.06 in 10.0 mi Calm Calm - N/A   Partly Cloudy
8:54 PM 77.0 °F - 48.9 °F 37% 30.06 in 10.0 mi Calm Calm - N/A   Clear
9:54 PM 72.0 °F - 50.0 °F 46% 30.06 in 10.0 mi Calm Calm - N/A   Clear
10:54 PM 70.0 °F - 51.1 °F 51% 30.06 in 10.0 mi Calm Calm - N/A   Clear
11:54 PM 66.9 °F - 52.0 °F 59% 30.06 in 10.0 mi Calm Calm - N/A   Clear